Regional Weather Roundup
Issued by NWS

Home | Current Version | Previous Version | Graphics & Text | Print | Product List | Glossary On
Versions: 1 2 3 4 5 6 7 8 9 10 11 12 13 14 15 16 17 18 19 20 21 22 23 24 25 26
000
ASUS45 KBOU 261907
RWRCO

WEATHER ROUNDUP FOR COLORADO
NATIONAL WEATHER SERVICE DENVER/BOULDER CO
100 PM MDT WED JUL 26 2017

NOTE: "FAIR" INDICATES FEW OR NO CLOUDS BELOW 12000 FEET WITH NO
SIGNIFICANT WEATHER AND/OR OBSTRUCTIONS TO VISIBILITY.

COZ001>005-013-030-031-262000-
...NORTHWEST COLORADO...

CITY           SKY/WX    TMP DP  RH WIND       PRES   REMARKS
CRAIG          PTSUNNY   76  54  46 CALM      30.30F
HAYDEN         FAIR      73  54  49 W3        30.32F
MEEKER         FAIR      77  57  50 VRB7      30.31F
RABBIT EARS PA FAIR      55  52  88 CALM      30.62R
STEAMBOAT SPGS FAIR      71  55  56 CALM      30.34S
WALDEN         CLOUDY    70  50  49 SW3       30.43S
$$

COZ006>008-011-262000-
...WEST CENTRAL VALLEYS...

CITY           SKY/WX    TMP DP  RH WIND       PRES   REMARKS
GRAND JUNCTION FAIR      82  63  52 VRB5      30.22F
MONTROSE       FAIR      79  58  48 NW3       30.28F
EAGLE          PTSUNNY   72  55  56 CALM      30.36F
RIFLE          PTSUNNY   76  64  66 VRB5      30.28F
DELTA          FAIR      85  55  35 S6        30.25S
NUCLA          FAIR      79  55  44 CALM      30.33F
$$

COZ017>023-064>068-262000-
...SOUTHWEST COLORADO...

CITY           SKY/WX    TMP DP  RH WIND       PRES   REMARKS
DURANGO        FAIR      79  52  38 NW8G18    30.34F
CORTEZ         FAIR      81  57  43 VRB6      30.30S
PAGOSA SPRINGS FAIR      77  51  39 S9        30.42S
TELLURIDE      FAIR      69  51  52 W7        30.53S
WOLF CREEK PAS FAIR      55  50  82 SW14G21   30.77S
$$

COZ009-010-012-014-032>034-037-058>063-262000-
...CENTRAL COLORADO...

CITY           SKY/WX    TMP DP  RH WIND       PRES   REMARKS
ASPEN          PTSUNNY   71  55  56 NW7       30.41S
BUENA VISTA    PTSUNNY   77  43  29 SW12G21   30.40S
COPPER MTN     CLOUDY    59  50  72 NW6       30.73R
BERTHOUD PASS  CLOUDY    46  32  57 W17       30.75R
COTTONWOOD PAS CLOUDY    72  43  35 W7        30.55F
GUNNISON       FAIR      69  55  60 N7        30.41F
KREMMLING      CLOUDY    73  57  56 NW8       30.41R
LEADVILLE      CLOUDY    64  47  53 N9        30.50F
MONARCH PASS   FAIR      55  46  71 W18       30.83S
SALIDA         PTSUNNY   82  49  32 W12G20    30.44F
SUNLIGHT       LGT RAIN  54  52  94 SW6       30.66S
WILKERSON PASS CLOUDY    61  43  51 SW6       30.69S
$$

COZ069>075-262000-
...SAN LUIS VALLEY/SANGRE DE CRISTO MOUNTAINS...

CITY           SKY/WX    TMP DP  RH WIND       PRES   REMARKS
ALAMOSA        FAIR      78  54  43 VRB5      30.38F
DEL NORTE      FAIR      74  53  47 SE3       30.42F
LA VETA PASS   NOT AVBL
SAGUACHE         N/A    N/A N/A N/A MISG        N/A
$$

COZ035-036-038>040-262000-
...NORTHERN COLORADO FRONT RANGE...

CITY           SKY/WX    TMP DP  RH WIND       PRES   REMARKS
DENVER INTL AP PTSUNNY   79  58  48 W5        30.25F
DMNS CITY PARK   N/A     76  57  52 SE5       30.25F
AURORA         PTSUNNY   77  60  54 N8        30.27F
FRONT RANGE AP PTSUNNY   79  59  50 N5        30.26F
ERIE MUNI ARPT PTSUNNY   77  60  55 E7        30.24F
BOULDER MUN AP PTSUNNY   79  57  47 SE3       30.25S
CENTENNIAL     PTSUNNY   77  58  51 VRB3      30.28S
BROOMFIELD     PTSUNNY   73  61  64 N5        30.28S
FORT COLLINS   PTSUNNY   76  60  57 CALM      30.24F
LONGMONT       PTSUNNY   79  61  54 E8        30.25F
$$

COZ041-046-047-076>085-087-088-262000-
...PIKES PEAK/PALMER DIVIDE AND SOUTHERN FOOTHILLS...

CITY           SKY/WX    TMP DP  RH WIND       PRES   REMARKS
COLO. SPRINGS  PTSUNNY   81  58  45 CALM      30.28F
A. F. ACADEMY  MOSUNNY   78  58  50 CALM      30.30F
SCHRIEVER AFB  FAIR      79  54  42 NW3       30.29F
CHEYENNE MTN   HVY RAIN  69  63  79 NW5       30.29S
ELLICOTT       FAIR     N/A N/A N/A CALM      30.26F
FALCON           N/A     76  55  46 NE3       30.35S
FORT CARSON    FAIR      80  59  48 NE3       30.25F
LIMON          FAIR      79  62  56 N13       30.24S
MONUMENT HILL  FAIR      72  55  56 CALM      30.37F
CANON CITY     SUNNY     84  63  48 NE6       30.21F
WALSENBURG     FAIR      86  57  37 N6        30.25F
TRINIDAD       FAIR      86  52  30 VRB5      30.23F
$$

COZ042>045-048>051-090-091-262000-
...NORTHEAST COLORADO...

CITY           SKY/WX    TMP DP  RH WIND       PRES   REMARKS
GREELEY ARPT   FAIR      77  61  57 N6        30.22F
AKRON          CLOUDY    81  59  47 N15G22    30.19F
BURLINGTON     FAIR      81  65  58 N18G25    30.15R
WRAY           NOT AVBL
YUMA           CLOUDY    81  54  39 NE9G21    30.15S
STERLING       CLOUDY    81  61  50 NE10      30.15S
HOLYOKE        FAIR      86  63  45 N13G21    30.13F
FORT MORGAN    CLOUDY    82  55  39 N8        30.20S
$$

COZ086-089-092>099-262000-
...SOUTHEAST COLORADO...

CITY           SKY/WX    TMP DP  RH WIND       PRES   REMARKS
PUEBLO         FAIR      88  58  36 MISG      30.15F
LA JUNTA       FAIR      92  59  33 VRB7      30.12F
LAMAR          FAIR      90  64  42 NW12      30.07F
SPRINGFIELD      N/A     89  60  37 NW10      30.13F
$$




USA.gov is the U.S. government's official web portal to all federal, state and local government web resources and services.